Wind_Speed
97 95 94 90 87 83 79 74 71 69 65 63 61 57 56 56 54 52 51 48 44 38 30 22 24 25 25 27 34 36 35 35 36 37 36 33 31 30 28 26 25 21 19 19 20 21 17 13 17 23 26 28 24 23
94 90 89 86 83 79 77 72 68 67 62 60 59 55 55 54 52 50 46 47 45 45 38 28 26 29 27 30 36 41 40 36 37 38 38 37 35 32 30 28 25 24 22 20 22 20 16 14 16 24 28 28 27 28
90 87 86 85 81 77 74 71 66 64 60 59 57 55 54 53 49 47 43 43 43 42 38 33 30 30 28 30 35 38 39 40 40 39 41 40 38 35 32 30 29 27 25 23 23 19 15 15 17 20 30 28 29 29
89 86 84 82 79 75 71 69 63 61 58 58 55 54 52 51 46 42 42 41 40 37 33 30 29 27 26 29 32 39 43 42 41 43 42 43 41 38 35 34 31 29 27 26 23 19 17 16 20 20 23 24 22 24
87 84 82 80 76 73 70 67 63 61 58 55 54 54 51 48 43 41 40 37 33 31 27 25 24 22 24 28 33 38 40 44 44 44 42 43 42 41 40 38 33 29 26 27 22 22 18 14 17 21 24 25 24 25
84 82 81 79 74 71 69 65 62 60 56 54 53 53 49 48 42 40 40 35 33 28 23 20 19 22 22 25 30 36 42 46 48 46 44 43 42 42 43 38 31 31 30 31 27 21 17 15 15 19 24 26 22 23
82 79 79 77 72 70 67 64 61 58 54 52 51 52 46 47 43 41 39 37 31 26 21 15 14 16 18 23 29 36 41 45 48 48 46 43 44 44 42 35 34 32 33 31 27 23 21 19 17 18 21 24 23 24
80 75 74 71 69 67 65 63 59 56 52 50 50 50 46 46 42 39 38 36 28 23 18 12 10 13 18 22 26 30 36 40 44 48 47 46 45 43 40 35 38 35 34 32 28 26 24 22 21 19 19 24 26 24
77 73 70 66 65 63 61 60 57 53 49 48 48 46 44 45 42 38 36 32 26 22 17 12 10 11 12 15 19 25 31 36 41 44 46 46 47 43 42 38 40 40 37 35 32 30 27 27 25 25 24 22 27 29
74 70 66 62 61 59 57 57 56 50 47 46 46 43 41 43 40 38 35 30 23 21 15 10 8 8 12 16 20 24 27 32 35 38 42 44 47 47 46 42 45 45 43 39 35 33 32 32 32 30 29 27 29 31
70 66 63 58 57 55 54 53 52 49 45 44 44 41 39 40 38 36 32 26 22 18 16 11 6 7 11 15 18 20 24 27 31 33 35 39 45 49 48 48 48 46 43 41 39 38 37 36 36 33 33 33 31 33
65 62 60 56 54 53 52 50 50 46 44 43 42 39 36 36 37 33 29 26 22 18 15 12 8 6 9 12 15 18 21 22 24 25 27 31 37 43 47 50 50 49 48 46 45 43 42 42 40 39 38 37 33 35
62 60 57 54 52 51 50 49 48 46 43 41 40 38 34 32 35 32 29 25 22 19 15 11 10 9 11 12 12 15 18 19 19 19 20 21 25 31 36 42 50 53 52 49 48 46 44 45 47 46 43 37 34 37
59 56 53 51 50 50 49 48 47 45 42 42 39 36 32 28 30 31 28 24 22 20 17 14 11 11 12 12 14 15 17 19 20 19 19 19 21 22 25 30 35 40 45 51 53 53 51 50 47 44 42 38 37 40
55 52 51 49 50 50 48 47 47 45 43 41 39 36 33 28 27 28 28 26 22 20 19 18 15 13 13 16 18 21 22 22 22 22 21 21 20 21 22 25 29 33 37 42 45 46 45 44 43 40 40 40 42 43
52 50 48 47 48 48 47 46 47 45 44 42 40 37 33 29 25 26 25 24 24 21 21 20 19 17 15 16 20 22 25 26 26 26 25 23 22 22 22 23 25 31 39 40 40 41 41 42 44 44 43 43 43 43
49 47 46 46 47 47 45 46 46 46 43 43 41 38 35 29 26 23 26 24 23 24 22 22 21 21 20 18 20 21 21 22 28 29 30 29 28 27 25 25 27 28 29 35 42 44 44 44 46 43 43 44 44 42
47 46 45 44 45 45 45 46 46 45 45 45 40 39 36 30 27 24 26 26 25 23 24 24 23 24 23 25 23 20 22 27 31 34 35 35 34 33 33 32 31 31 32 35 37 38 39 42 42 43 43 43 44 44
45 44 45 44 44 45 47 47 47 46 46 45 42 39 37 32 28 26 26 27 26 27 26 24 25 26 25 26 25 25 25 26 28 32 35 37 39 40 40 40 41 41 41 40 41 41 43 44 46 47 49 50 50 50
45 44 43 42 43 46 47 48 48 48 46 44 42 42 41 34 30 30 29 31 30 30 30 28 25 27 28 27 27 26 27 29 30 30 32 35 39 41 45 46 46 47 48 49 49 50 50 49 49 49 49 50 49 48
46 44 43 42 44 45 47 50 50 51 49 46 45 42 40 35 36 35 34 33 33 36 34 32 31 31 30 29 28 30 31 31 32 33 34 36 36 36 38 42 45 50 52 53 53 55 57 57 56 57 58 58 57 56
47 46 44 43 45 46 47 49 49 48 48 48 46 43 40 40 40 39 37 37 39 39 37 34 33 34 33 32 31 31 30 32 34 35 36 36 37 39 41 43 44 45 46 47 51 55 56 59 59 60 62 63 63 63
47 46 46 45 44 45 47 48 46 45 48 46 43 42 42 42 41 40 37 40 44 41 36 35 35 36 36 34 34 34 34 33 34 35 36 37 38 39 40 42 45 47 49 49 53 54 54 52 52 54 54 56 60 62
46 48 47 47 47 47 46 45 44 46 46 44 42 42 43 43 41 39 40 45 43 38 37 36 35 37 37 37 37 38 37 37 37 36 38 40 40 39 40 42 44 44 47 50 51 53 54 54 54 54 53 54 54 52
46 45 46 48 48 48 47 46 45 45 44 42 41 42 44 41 41 41 44 45 40 39 37 35 36 39 38 37 38 40 40 40 40 38 37 41 42 41 41 43 43 43 44 49 51 50 49 51 53 55 55 54 53 53
45 43 46 50 48 49 48 47 45 45 44 42 43 43 42 40 41 43 46 40 39 39 37 35 37 39 39 39 41 42 42 42 41 40 39 40 41 41 41 42 45 45 46 48 50 50 49 49 49 51 53 54 54 53
41 45 49 52 53 51 48 46 45 45 45 44 43 40 39 40 43 43 41 39 38 37 37 38 38 39 41 41 42 43 43 43 43 42 42 40 40 40 40 44 48 47 46 44 45 47 49 48 48 47 49 50 51 51
43 48 56 56 53 52 48 47 46 44 43 42 39 36 36 38 38 37 38 38 37 37 38 39 40 40 40 41 42 43 43 42 43 43 42 41 40 39 42 46 47 47 46 46 45 43 42 43 45 47 47 48 50 50
53 56 59 56 57 53 50 49 46 43 39 39 38 36 38 37 35 35 36 37 38 39 40 41 40 40 40 42 42 42 40 40 41 41 41 41 42 44 45 46 44 43 44 46 44 41 42 44 46 48 49 49 49 49
57 57 51 55 55 53 52 46 44 39 38 38 37 37 36 33 33 35 36 37 39 40 40 40 40 40 40 39 39 38 39 40 39 39 40 44 46 45 42 39 39 40 42 43 44 43 43 47 46 45 47 48 47 46
37 30 26 38 47 44 44 43 40 38 37 37 38 39 35 33 35 36 36 37 39 40 39 38 37 36 36 36 38 37 35 37 39 41 43 45 43 41 40 39 38 38 39 40 41 41 40 43 46 47 48 50 50 49
28 31 33 29 35 36 35 35 36 36 37 39 38 35 34 35 35 35 36 37 37 36 35 33 33 34 35 35 35 35 36 38 40 41 41 39 38 39 39 39 39 39 38 38 40 42 43 44 46 47 47 48 48 47
31 27 26 26 27 32 36 34 34 37 37 36 34 34 34 34 35 34 34 36 33 31 31 32 33 33 33 33 35 37 38 38 37 35 34 35 36 36 37 38 36 36 39 40 40 41 42 42 43 42 43 43 43 43
Wind_Direction
305 306 307 309 310 313 314 315 317 318 320 320 321 323 322 321 323 327 329 326 326 328 325 303 286 280 267 236 236 238 223 210 203 198 193 191 190 188 184 186 189 194 199 202 206 206 212 218 220 213 221 231 242 259
303 304 305 307 309 311 312 314 316 316 319 318 319 320 319 319 323 328 324 322 322 321 317 303 286 274 261 240 224 230 232 223 213 206 202 199 201 201 201 199 200 204 211 215 215 211 218 227 226 221 231 239 254 262
301 302 304 306 308 310 311 312 314 314 317 315 317 317 316 318 322 326 320 318 316 311 304 295 284 269 255 236 223 221 230 227 217 213 208 207 208 211 211 209 208 214 221 221 215 216 230 239 237 230 233 241 256 270
298 300 302 303 306 308 309 310 311 312 315 314 314 313 314 317 324 323 318 320 312 306 300 289 278 265 248 229 219 212 219 223 219 214 213 212 213 217 218 217 218 222 224 222 218 216 230 242 240 240 247 251 257 267
296 298 299 300 303 305 306 307 308 311 312 312 311 310 312 316 322 320 321 316 313 315 304 288 271 255 235 219 215 213 211 219 222 217 216 215 215 218 217 219 220 225 227 222 216 224 232 244 244 246 249 251 258 262
293 295 296 297 300 302 302 304 306 308 309 307 307 306 312 313 322 320 322 325 328 323 313 292 268 247 227 215 212 213 210 212 219 220 218 216 216 216 218 221 219 225 223 220 220 224 235 250 255 255 253 255 253 260
290 291 292 294 297 298 298 300 302 304 305 304 304 305 312 312 320 324 328 334 329 328 324 295 264 246 224 218 215 214 213 212 214 219 220 220 220 221 221 222 221 225 222 224 224 229 234 244 255 264 258 247 255 262
289 289 289 292 293 293 294 297 299 301 301 301 301 304 311 311 320 327 331 331 330 335 330 302 274 246 231 224 220 220 219 219 217 218 221 221 222 224 225 223 224 225 224 229 231 233 239 248 255 264 263 247 256 259
287 287 288 290 289 290 292 293 295 298 298 297 298 305 308 310 317 324 330 331 331 335 330 306 277 250 234 227 223 222 221 220 222 221 220 220 222 224 225 222 225 229 228 231 235 240 244 252 258 263 270 281 261 257
284 286 287 287 287 287 288 289 291 293 293 294 296 303 305 306 313 322 326 330 329 334 326 307 276 245 226 221 221 222 222 222 222 223 222 220 221 223 224 223 225 227 228 232 237 243 247 254 259 264 271 281 274 256
281 283 284 284 284 284 284 283 285 288 288 289 293 298 301 303 309 316 320 325 328 330 331 315 286 247 234 226 224 223 224 225 225 224 223 223 221 222 223 224 227 232 234 236 240 246 250 255 258 264 272 276 268 259
278 279 280 280 279 279 278 278 279 281 282 285 288 293 296 300 305 310 315 322 329 326 325 315 294 246 226 229 226 224 224 223 222 222 222 224 225 227 227 227 229 232 235 238 240 243 251 255 258 265 271 272 261 257
274 274 275 275 275 273 272 272 273 275 277 280 284 287 293 298 299 305 313 315 321 323 315 308 293 258 227 222 227 230 229 225 220 213 215 220 224 227 229 230 231 233 235 238 241 240 244 252 259 264 268 262 255 255
270 271 270 269 268 267 266 266 268 271 273 276 280 283 289 292 291 299 304 307 310 313 307 300 280 258 238 227 230 240 235 227 222 213 214 218 224 228 229 230 230 229 232 236 240 244 247 248 251 257 257 250 249 248
266 265 264 262 261 261 261 261 262 267 268 270 274 278 282 286 286 290 294 299 300 300 302 290 281 266 248 227 227 229 229 226 221 217 215 220 226 230 234 235 235 233 230 233 236 238 241 243 243 245 248 246 244 245
261 260 258 257 256 255 255 255 257 261 263 266 270 274 276 278 277 281 283 286 292 295 292 281 274 270 260 254 244 232 231 229 228 228 226 226 228 234 238 238 239 237 236 235 235 237 241 240 239 246 246 247 250 250
254 254 253 252 252 250 250 252 253 257 260 261 265 271 271 273 274 272 276 275 277 285 283 278 267 259 260 254 249 254 261 253 240 239 238 236 234 231 231 236 240 245 243 238 240 241 243 244 249 252 250 248 252 255
250 250 249 247 246 246 247 248 250 252 255 259 262 265 269 270 270 269 271 271 268 269 273 272 269 258 254 253 254 255 249 246 246 245 245 246 245 243 240 237 236 238 243 248 250 248 247 248 250 251 251 253 255 256
247 247 245 244 242 243 244 246 248 250 253 257 260 263 267 271 267 269 266 267 268 268 270 267 266 264 258 255 256 254 252 249 249 251 252 254 254 252 250 248 246 244 241 242 244 247 250 253 255 255 255 256 258 260
242 242 242 242 241 240 242 243 246 249 252 255 258 261 264 267 265 262 259 262 265 267 268 271 270 265 264 263 258 255 253 252 254 253 253 254 254 255 257 259 259 257 255 253 251 250 250 249 251 253 255 256 258 259
239 240 239 238 237 239 240 242 244 246 249 252 256 260 261 263 262 262 263 262 263 265 269 270 272 271 264 258 257 257 257 257 256 255 254 255 256 257 257 257 258 259 261 260 259 260 261 261 260 259 258 258 259 259
238 239 238 236 236 238 238 240 241 246 248 250 253 255 257 257 260 261 262 264 265 265 267 271 269 267 265 262 260 259 257 254 255 257 258 258 258 258 258 259 261 262 263 263 263 263 262 262 261 260 262 264 265 265
237 236 236 237 237 237 238 240 242 244 246 248 248 249 252 253 255 258 262 262 261 262 265 266 263 265 267 266 265 263 261 261 261 258 256 256 256 256 257 259 260 261 261 261 263 265 264 264 263 264 264 263 262 263
235 235 236 235 235 237 240 242 242 244 246 247 248 249 251 251 253 255 257 258 261 263 261 261 261 263 265 265 266 268 268 267 267 266 264 263 261 261 262 261 260 259 260 262 261 261 263 265 265 265 265 265 264 264
234 234 233 234 234 236 239 240 242 244 245 246 245 246 249 251 252 253 253 257 259 260 260 261 260 261 264 265 266 268 270 270 271 271 268 267 266 266 266 266 266 265 266 266 266 265 263 262 262 263 264 264 265 266
227 229 231 233 233 232 235 237 238 240 243 244 244 245 248 249 251 251 254 258 258 259 261 260 259 259 261 262 263 265 268 270 272 273 272 271 271 271 270 268 266 265 266 267 268 268 267 266 263 262 262 262 263 264
221 223 227 229 230 230 230 231 234 237 238 239 239 240 243 245 247 249 254 255 256 257 258 259 259 260 261 262 263 265 268 271 273 274 273 271 270 270 271 272 271 273 272 269 267 266 267 267 266 263 263 263 263 263
221 221 225 226 227 229 229 231 232 233 235 237 236 236 239 243 246 249 251 254 257 258 259 260 261 262 263 266 267 268 269 273 276 276 275 273 272 272 271 270 273 275 276 274 272 270 269 268 268 267 265 263 264 264
210 217 221 224 226 225 224 228 231 231 231 234 236 234 237 240 244 249 253 255 256 257 259 260 261 263 265 267 269 272 275 276 277 275 273 272 269 268 270 274 276 276 274 274 275 276 273 270 268 267 266 265 264 264
219 221 229 229 223 222 223 223 227 229 230 232 234 236 239 240 245 250 253 255 257 259 261 263 265 265 268 271 274 274 274 274 272 272 271 269 271 275 279 278 275 273 273 275 277 274 272 271 269 266 265 265 264 263
249 239 245 236 228 226 224 226 224 225 228 232 234 236 238 241 244 249 254 257 259 261 263 265 266 269 271 272 273 273 273 272 270 269 271 275 280 283 281 279 279 280 279 277 276 274 272 270 270 268 266 265 264 260
235 227 231 229 228 226 226 226 226 226 228 231 234 236 239 244 247 249 254 258 261 264 265 267 269 270 272 273 273 270 268 267 270 274 279 283 283 283 287 288 287 286 284 282 281 280 277 274 272 270 268 266 263 261
217 221 226 226 223 221 223 224 224 226 227 229 233 237 241 245 249 252 256 260 264 265 266 267 269 271 272 271 269 269 271 274 278 282 282 282 285 288 286 286 288 288 286 283 281 278 277 275 272 269 266 263 261 256
Height
10508 10503 10494 10488 10482 10477 10469 10464 10457 10447 10439 10431 10424 10419 10411 10403 10397 10389 10381 10373 10369 10366 10366 10364 10360 10358 10357 10359 10364 10369 10371 10374 10377 10381 10386 10390 10395 10399 10402 10407 10411 10415 10418 10422 10425 10429 10432 10434 10437 10440 10443 10444 10447 10448
10491 10486 10479 10473 10468 10463 10455 10451 10445 10435 10429 10421 10414 10409 10402 10395 10388 10382 10376 10366 10359 10353 10351 10350 10350 10348 10347 10348 10352 10359 10365 10368 10373 10377 10382 10387 10392 10397 10401 10405 10409 10413 10416 10420 10423 10426 10428 10430 10433 10436 10438 10441 10443 10442
10474 10469 10463 10457 10454 10449 10442 10437 10433 10424 10419 10411 10405 10399 10393 10386 10381 10376 10368 10361 10353 10347 10341 10338 10337 10336 10335 10337 10340 10348 10357 10364 10368 10373 10377 10383 10388 10393 10398 10402 10405 10409 10413 10416 10420 10423 10425 10427 10429 10431 10433 10436 10437 10437
10456 10453 10448 10442 10439 10435 10429 10424 10420 10413 10408 10401 10394 10388 10383 10376 10375 10369 10360 10352 10345 10338 10331 10327 10324 10324 10325 10327 10331 10337 10346 10355 10362 10366 10371 10377 10383 10388 10394 10398 10402 10405 10408 10412 10417 10420 10421 10423 10425 10427 10428 10430 10432 10433
10439 10436 10431 10427 10424 10421 10414 10411 10407 10402 10396 10390 10383 10378 10373 10368 10366 10360 10352 10345 10336 10327 10321 10317 10314 10314 10315 10318 10322 10328 10337 10346 10353 10359 10365 10371 10376 10381 10387 10391 10398 10402 10407 10410 10414 10415 10417 10419 10420 10421 10423 10425 10426 10427
10423 10420 10413 10410 10409 10406 10400 10397 10394 10389 10385 10378 10373 10366 10364 10358 10355 10349 10341 10332 10324 10317 10313 10309 10307 10307 10309 10311 10316 10322 10328 10335 10344 10350 10357 10363 10369 10374 10379 10386 10396 10397 10400 10403 10406 10411 10413 10414 10415 10416 10417 10418 10420 10421
10406 10403 10397 10394 10394 10390 10385 10382 10380 10377 10373 10367 10361 10354 10354 10347 10344 10337 10329 10322 10316 10310 10306 10303 10302 10302 10304 10307 10310 10316 10321 10326 10333 10342 10349 10356 10362 10367 10374 10383 10389 10391 10394 10397 10402 10405 10407 10409 10410 10411 10412 10413 10414 10415
10385 10384 10379 10380 10378 10374 10370 10367 10365 10364 10361 10355 10350 10344 10342 10336 10334 10328 10321 10316 10310 10304 10301 10299 10299 10299 10300 10303 10306 10311 10316 10321 10326 10333 10341 10348 10354 10362 10370 10376 10381 10384 10387 10391 10395 10398 10400 10402 10404 10405 10406 10408 10409 10409
10364 10363 10363 10364 10361 10357 10355 10351 10350 10351 10348 10343 10339 10336 10332 10327 10324 10321 10316 10311 10305 10301 10298 10296 10296 10296 10298 10300 10303 10307 10310 10315 10320 10325 10332 10340 10348 10355 10361 10369 10373 10376 10380 10384 10387 10390 10393 10395 10397 10398 10399 10401 10402 10403
10345 10345 10345 10346 10343 10341 10340 10336 10334 10337 10336 10333 10330 10329 10324 10319 10317 10313 10310 10307 10302 10298 10295 10294 10293 10293 10294 10296 10298 10301 10305 10309 10314 10319 10325 10333 10339 10345 10352 10358 10362 10365 10370 10375 10380 10383 10386 10388 10389 10390 10392 10393 10394 10396
10327 10327 10327 10328 10326 10325 10324 10323 10321 10323 10324 10322 10321 10320 10317 10313 10311 10309 10306 10303 10298 10295 10293 10291 10290 10290 10290 10292 10294 10297 10301 10305 10309 10314 10319 10324 10330 10335 10342 10348 10353 10358 10363 10368 10373 10376 10378 10380 10381 10383 10385 10386 10387 10388
10310 10309 10310 10310 10310 10309 10309 10309 10308 10310 10312 10312 10312 10311 10310 10306 10303 10303 10300 10297 10294 10291 10290 10289 10288 10288 10289 10291 10292 10295 10298 10302 10306 10310 10314 10318 10323 10328 10333 10339 10344 10348 10353 10358 10363 10366 10369 10371 10372 10374 10376 10377 10378 10379
10290 10291 10292 10293 10293 10292 10293 10294 10295 10297 10300 10301 10302 10302 10302 10299 10295 10295 10293 10291 10289 10288 10287 10286 10286 10286 10286 10288 10289 10292 10295 10299 10302 10305 10309 10312 10316 10320 10324 10328 10333 10338 10343 10349 10352 10356 10359 10361 10362 10363 10365 10367 10367 10369
10270 10272 10274 10276 10276 10276 10278 10280 10281 10284 10287 10289 10291 10293 10293 10294 10290 10288 10287 10286 10284 10283 10283 10282 10283 10283 10284 10285 10287 10289 10292 10295 10298 10301 10305 10307 10309 10313 10316 10320 10323 10326 10331 10335 10339 10343 10347 10349 10351 10354 10355 10355 10357 10359
10250 10253 10256 10258 10260 10261 10264 10266 10268 10271 10274 10278 10280 10282 10284 10285 10283 10282 10281 10280 10280 10279 10278 10278 10278 10279 10280 10281 10283 10285 10288 10290 10294 10296 10299 10302 10305 10307 10310 10313 10316 10319 10322 10326 10329 10332 10335 10337 10340 10342 10343 10344 10346 10348
10231 10235 10238 10242 10243 10247 10250 10253 10255 10259 10262 10265 10268 10271 10274 10276 10277 10276 10275 10274 10273 10274 10274 10273 10274 10275 10276 10277 10278 10280 10282 10285 10289 10291 10294 10297 10300 10302 10303 10305 10308 10311 10314 10316 10318 10321 10324 10326 10328 10330 10331 10333 10334 10336
10213 10217 10221 10225 10228 10232 10236 10240 10243 10246 10251 10253 10256 10260 10263 10267 10268 10269 10268 10269 10268 10267 10267 10268 10268 10269 10269 10272 10272 10275 10277 10282 10284 10286 10288 10290 10292 10294 10297 10298 10300 10302 10304 10306 10309 10311 10313 10315 10317 10319 10320 10322 10324 10325
10197 10201 10205 10210 10214 10218 10223 10227 10231 10236 10239 10241 10246 10249 10252 10256 10258 10260 10260 10261 10262 10262 10262 10262 10263 10263 10264 10263 10265 10269 10271 10272 10275 10277 10279 10282 10284 10286 10288 10290 10292 10294 10296 10297 10299 10301 10303 10304 10306 10308 10309 10310 10311 10312
10181 10186 10190 10196 10201 10206 10210 10215 10219 10223 10226 10229 10233 10237 10240 10244 10247 10250 10251 10252 10253 10253 10254 10255 10255 10255 10256 10257 10258 10260 10261 10263 10265 10267 10269 10272 10274 10276 10278 10280 10282 10283 10285 10286 10288 10289 10290 10292 10294 10296 10297 10297 10298 10299
10165 10171 10177 10183 10188 10192 10197 10201 10205 10209 10213 10218 10222 10225 10228 10232 10236 10239 10241 10242 10243 10244 10244 10245 10247 10247 10247 10248 10249 10250 10252 10254 10255 10257 10258 10259 10261 10263 10265 10266 10268 10271 10273 10274 10275 10277 10277 10279 10280 10280 10281 10282 10283 10285
10151 10158 10164 10170 10174 10180 10184 10187 10192 10197 10202 10206 10209 10213 10217 10221 10224 10227 10230 10232 10233 10232 10234 10237 10238 10237 10238 10239 10239 10241 10242 10243 10244 10246 10247 10248 10249 10250 10251 10252 10253 10254 10255 10257 10259 10260 10261 10263 10265 10265 10265 10266 10268 10268
10138 10144 10150 10155 10161 10166 10171 10175 10180 10185 10189 10193 10197 10202 10206 10209 10212 10215 10219 10220 10219 10221 10224 10226 10227 10226 10227 10229 10229 10230 10231 10232 10233 10234 10235 10236 10236 10237 10238 10238 10239 10239 10240 10241 10240 10240 10241 10242 10243 10245 10246 10248 10249 10250
10125 10131 10136 10142 10147 10151 10156 10162 10168 10173 10176 10181 10187 10191 10194 10197 10201 10204 10208 10207 10205 10210 10215 10215 10215 10215 10215 10217 10218 10219 10219 10219 10220 10221 10222 10222 10223 10224 10224 10224 10223 10224 10224 10224 10222 10221 10222 10224 10225 10224 10225 10226 10227 10229
10112 10117 10123 10128 10133 10137 10144 10149 10156 10160 10163 10169 10174 10179 10181 10185 10190 10194 10194 10191 10195 10201 10201 10202 10203 10203 10204 10205 10205 10206 10206 10206 10206 10207 10207 10206 10207 10208 10208 10208 10208 10209 10208 10205 10205 10205 10205 10205 10205 10206 10207 10207 10208 10210
10098 10104 10112 10115 10120 10125 10130 10136 10142 10146 10150 10157 10162 10165 10167 10174 10178 10181 10179 10179 10186 10186 10188 10191 10191 10191 10192 10193 10193 10192 10193 10192 10192 10192 10193 10191 10192 10192 10193 10191 10190 10192 10191 10187 10187 10187 10188 10188 10188 10187 10188 10189 10190 10191
10085 10095 10099 10101 10106 10111 10116 10123 10129 10133 10138 10145 10148 10151 10157 10162 10165 10166 10164 10171 10174 10174 10176 10178 10179 10179 10180 10180 10179 10179 10179 10178 10178 10177 10178 10177 10177 10176 10175 10174 10173 10175 10175 10172 10170 10169 10168 10169 10170 10171 10170 10171 10172 10174
10076 10079 10080 10085 10090 10096 10103 10110 10116 10122 10127 10131 10135 10141 10146 10149 10151 10153 10156 10159 10161 10162 10163 10165 10165 10166 10166 10167 10166 10165 10165 10164 10164 10162 10162 10162 10162 10162 10160 10157 10154 10156 10156 10156 10154 10153 10151 10151 10152 10153 10153 10154 10155 10157
10062 10063 10062 10067 10076 10083 10092 10098 10103 10108 10114 10119 10125 10130 10134 10135 10138 10142 10144 10146 10149 10150 10152 10152 10152 10152 10153 10152 10152 10151 10151 10151 10149 10147 10146 10146 10146 10146 10144 10142 10140 10139 10137 10136 10136 10136 10136 10136 10135 10135 10136 10137 10137 10139
10037 10040 10044 10054 10060 10068 10076 10082 10089 10095 10102 10109 10113 10117 10119 10123 10127 10129 10132 10134 10136 10138 10139 10139 10139 10139 10139 10139 10138 10138 10137 10136 10134 10132 10131 10130 10130 10130 10129 10128 10126 10125 10122 10119 10119 10121 10120 10119 10118 10117 10118 10118 10119 10120
10015 10022 10033 10035 10044 10054 10061 10070 10076 10085 10092 10097 10101 10104 10108 10113 10116 10117 10120 10122 10124 10125 10126 10127 10127 10127 10126 10126 10125 10124 10123 10121 10121 10119 10116 10114 10114 10113 10113 10113 10111 10110 10108 10106 10103 10103 10103 10099 10099 10100 10099 10099 10101 10104
10014 10025 10028 10031 10039 10048 10054 10061 10069 10075 10080 10085 10090 10092 10098 10101 10104 10107 10109 10111 10112 10113 10114 10115 10114 10114 10114 10113 10112 10111 10110 10109 10107 10105 10103 10101 10100 10099 10098 10096 10095 10094 10092 10090 10087 10085 10084 10082 10080 10081 10081 10081 10084 10085
10010 10017 10022 10028 10034 10042 10050 10057 10062 10066 10070 10075 10079 10084 10088 10091 10094 10096 10098 10099 10099 10101 10102 10102 10102 10102 10101 10101 10100 10099 10097 10096 10095 10093 10091 10090 10087 10085 10083 10080 10078 10076 10073 10070 10068 10065 10064 10062 10061 10061 10062 10062 10063 10066
10004 10011 10017 10023 10031 10039 10044 10049 10054 10057 10061 10067 10072 10075 10078 10081 10082 10086 10088 10087 10089 10090 10090 10090 10090 10090 10089 10088 10086 10085 10085 10084 10083 10082 10080 10077 10075 10073 10070 10066 10064 10060 10057 10054 10051 10049 10047 10045 10043 10043 10044 10044 10046 10048